[[{"header":{"parameterUnit":"m.s-1","parameterCategory":1,"la1":30.2992,"la2":30.254,"lo1":-89.0895,"lo2":-89.0443,"dy":0.0025,"dx":0.0025,"nx":19,"ny":19,"refTime":"2026-05-17T09:00:00:Z","depth":0,"parameterNumber":2,"parameterNumberName":"U-component_of_WINDS"},"data":[0,0,0,-5.7261,-5.7264,-5.739,-5.739,-5.7565,-5.7567,0,0,0,0,0,0,0,0,0,0,0,-5.7233,-5.7235,-5.7261,-5.7264,-5.739,-5.739,-5.7565,-5.7567,0,0,0,0,0,0,0,0,0,0,0,-5.7233,-5.7235,-5.7237,-5.7265,-5.739,-5.739,-5.7564,-5.7464,0,0,0,0,0,0,0,0,0,0,-5.734,-5.7324,-5.7234,-5.7237,-5.7266,-5.739,-5.739,-5.7459,-5.7471,-5.7515,0,-5.7557,0,-5.7565,-5.758,-5.758,0,0,0,-5.7257,-5.7314,-5.734,-5.7237,-5.7267,-5.7389,-5.7331,-5.7465,-5.7478,-5.753,-5.756,-5.7566,-5.7568,-5.7581,-5.7582,-5.7863,-5.7865,0,0,-5.725,-5.7261,-5.7331,-5.7349,-5.7331,-5.7327,-5.7335,-5.7473,-5.7506,-5.756,-5.7569,-5.7571,-5.7582,-5.7583,-5.7862,-5.7864,0,0,0,-5.7235,-5.7256,-5.7278,-5.7342,-5.7364,-5.7331,-5.734,-5.7499,-5.7506,-5.7571,-5.7573,-5.7583,-5.7585,-5.786,-5.7862,-5.7953,0,0,0,-5.723,-5.7248,-5.7275,-5.7283,-5.7361,-5.7433,-5.7364,-5.7496,-5.7511,-5.7572,-5.7583,-5.7587,-5.7858,-5.7861,-5.7947,-5.7993,0,0,0,-5.7222,-5.7246,-5.7268,-5.7284,-5.7338,-5.7431,-5.7445,-5.7499,-5.7513,-5.758,-5.7588,-5.7857,-5.786,-5.7941,-5.7984,-5.8069,0,0,0,-5.7215,-5.7347,-5.727,-5.7418,-5.7337,-5.7488,-5.7444,-5.7555,-5.7624,-5.7584,-5.7858,-5.7862,-5.7939,-5.7978,-5.8063,-5.814,-5.8174,0,0,-5.7388,-5.7369,-5.7455,-5.7389,-5.7556,-5.7468,-5.7648,-5.77,-5.7697,-5.7808,-5.7814,-5.7949,-5.7983,-5.8068,-5.8368,-5.8395,0,0,0,-5.7513,-5.7575,-5.7617,-5.7684,-5.7729,-5.777,-5.7794,-5.7814,-5.7908,-5.7757,-5.8004,-5.8024,-5.8073,-5.8109,-5.8132,-5.8172,-5.788,-5.788,-5.7879,-5.7769,-5.7759,-5.7901,-5.7906,-5.7972,-5.7997,-5.8048,-5.8079,-5.8049,-5.8108,-5.8139,-5.8322,-5.8365,-5.8382,-5.8425,-5.8182,-5.8182,-5.8183,-5.8183,-5.8018,-5.8102,-5.8062,-5.8184,-5.8173,-5.8275,-5.8305,-5.8281,-5.8373,-5.8298,-5.834,-5.8255,-5.8413,-5.8449,-5.819,-5.8189,-5.8188,-5.8187,-5.8187,-5.8181,-5.822,-5.8244,-5.8339,-5.8415,-5.8416,-5.8508,-5.8495,-5.8483,-5.8525,-5.8556,-5.8554,-5.8548,-5.8542,-5.8542,-5.8543,-5.8544,-5.8544,-5.8544,-5.834,-5.8364,-5.8442,-5.8503,-5.8544,-5.8597,-5.8625,-5.8665,-5.8706,-5.8689,-5.8689,-5.8652,-5.8432,-5.8374,-5.8554,-5.8552,-5.8551,-5.855,-5.855,-5.8589,-5.8531,-5.8653,-5.8695,-5.8764,-5.8839,-5.8823,-5.8906,-5.8938,-5.8983,-5.8939,-5.8779,-5.8758,-5.8739,-5.8691,-5.8942,-5.8942,-5.8942,-5.8942,-5.8724,-5.8713,-5.8834,-5.8902,-5.8967,-5.8965,-5.9102,-5.9127,-5.9142,-5.9161,-5.9124,-5.9061,-5.9043,-5.9032,-5.9007,-5.8962,-5.9276,-5.9277,-5.9277,-5.8875,-5.887,-5.8989,-5.9005,-5.9059,-5.9105,-5.9233,-5.9312,-5.9318,-5.929,-5.9175,-5.9161,-5.9059,-5.9027,-5.8992,-5.8953,-5.8871,0,0]},{"header":{"parameterUnit":"m.s-1","parameterCategory":1,"la1":30.2992,"la2":30.254,"lo1":-89.0895,"lo2":-89.0443,"dy":0.0025,"dx":0.0025,"nx":19,"ny":19,"refTime":"2026-05-17T09:00:00:Z","depth":0,"parameterNumber":3,"parameterNumberName":"V-component_of_WINDS"},"data":[0,0,0,3.707,3.707,3.7079,3.7079,3.7095,3.7095,0,0,0,0,0,0,0,0,0,0,0,3.707,3.707,3.707,3.707,3.7079,3.7079,3.7095,3.7095,0,0,0,0,0,0,0,0,0,0,0,3.707,3.707,3.707,3.707,3.7079,3.7079,3.7095,3.7086,0,0,0,0,0,0,0,0,0,0,3.7077,3.7079,3.707,3.707,3.707,3.7079,3.7079,3.7086,3.7087,3.7093,0,3.7098,0,3.7097,3.7096,3.7096,0,0,0,3.7068,3.7079,3.7079,3.707,3.707,3.7079,3.7074,3.7086,3.7088,3.7094,3.7099,3.7099,3.7097,3.7096,3.7097,3.7137,3.7138,0,0,3.7067,3.7073,3.7078,3.708,3.7079,3.7074,3.7075,3.7087,3.7092,3.7099,3.7099,3.7098,3.7097,3.7097,3.7137,3.7138,0,0,0,3.7067,3.7072,3.7072,3.7079,3.708,3.7074,3.7075,3.7092,3.7091,3.71,3.7098,3.7097,3.7097,3.7137,3.7137,3.7157,0,0,0,3.7067,3.7072,3.7072,3.7075,3.708,3.7086,3.708,3.709,3.7092,3.7098,3.7097,3.7097,3.7137,3.7137,3.7156,3.7165,0,0,0,3.7068,3.7072,3.7075,3.7076,3.708,3.7086,3.7086,3.7091,3.7091,3.7096,3.7097,3.7136,3.7137,3.7155,3.7163,3.7178,0,0,0,3.7071,3.7091,3.7075,3.7098,3.708,3.7098,3.7086,3.7099,3.7107,3.7097,3.7137,3.7137,3.7154,3.7162,3.7177,3.7191,3.7197,0,0,3.71,3.7095,3.7108,3.7094,3.7117,3.7096,3.7122,3.7123,3.7119,3.7132,3.7132,3.7156,3.7163,3.7178,3.7232,3.7237,0,0,0,3.7119,3.7128,3.7133,3.7141,3.7143,3.7145,3.7142,3.7143,3.7154,3.7127,3.7165,3.7169,3.7177,3.7184,3.7188,3.7195,3.7141,3.714,3.714,3.7166,3.716,3.7181,3.7177,3.7184,3.7182,3.7187,3.7188,3.7179,3.7188,3.7192,3.7226,3.7233,3.7237,3.7244,3.7199,3.7199,3.7199,3.7199,3.7208,3.7221,3.7209,3.7226,3.722,3.7233,3.7232,3.7225,3.7237,3.7222,3.7229,3.7213,3.7243,3.7249,3.7201,3.72,3.72,3.72,3.72,3.7239,3.7244,3.7245,3.7256,3.7265,3.726,3.7272,3.7266,3.726,3.7266,3.727,3.727,3.7268,3.7269,3.7269,3.7269,3.7269,3.7269,3.7269,3.727,3.7271,3.7282,3.7287,3.7292,3.7297,3.7295,3.7299,3.7302,3.7297,3.7297,3.7287,3.7247,3.7237,3.7271,3.7271,3.727,3.727,3.727,3.7314,3.7304,3.7321,3.7326,3.7332,3.7342,3.7334,3.7343,3.7346,3.7352,3.7342,3.7313,3.7307,3.7304,3.7295,3.7343,3.7343,3.7343,3.7343,3.734,3.7337,3.7354,3.7362,3.737,3.7365,3.7385,3.7384,3.7382,3.7383,3.7376,3.7364,3.7361,3.7357,3.7352,3.7345,3.7403,3.7404,3.7404,3.7367,3.7365,3.7384,3.7382,3.7386,3.739,3.7409,3.7419,3.7414,3.7406,3.7384,3.7382,3.7363,3.7357,3.7348,3.7341,3.7326,0,0]}]]